[[{"header":{"parameterUnit":"m.s-1","parameterCategory":2,"la1":30.2991,"la2":30.254,"lo1":-89.0895,"lo2":-89.0444,"dy":0.0017,"dx":0.0017,"nx":28,"ny":28,"refTime":"2025-04-14T03:00:00:Z","depth":"0","parameterNumber":2,"parameterNumberName":"U-component_of_CURRENTS"},"data":[0,0,0,0,0,0,0,0,0,0,0,0,0,0,0,0,0,0,0,0,0,0,0,0,0,0,0,0,0,0,0,0,0,0,0,0,0,0,0,0,0,0,0,0,0,0,0,0,0,0,0,0,0,0,0,0,0,0,-0.1705,-0.1705,0,-0.1701,-0.17,-0.17,-0.1661,-0.166,-0.1659,-0.1658,-0.1577,-0.1576,-0.1575,0,0,0,0,0,0,0,0,0,0,0,0,0,-0.1703,-0.1703,-0.1705,-0.1705,-0.1705,-0.1701,-0.17,-0.17,-0.1661,-0.166,-0.1659,-0.1658,-0.1578,-0.1576,-0.1574,0,0,0,0,0,0,0,0,0,0,0,0,0,-0.17,-0.1703,-0.1705,-0.1686,-0.1685,-0.1701,-0.17,-0.17,-0.1661,-0.166,-0.1659,-0.1658,-0.1578,-0.1576,-0.1574,-0.1586,0,0,-0.1568,-0.1567,0,0,0,0,0,0,0,0,-0.17,-0.17,-0.1689,-0.1687,-0.1686,-0.1682,-0.167,-0.1659,-0.1661,-0.1668,-0.1658,-0.1657,-0.1607,-0.1603,-0.1603,-0.1582,-0.1579,-0.1568,-0.1566,-0.1565,-0.1565,0,0,0,0,0,0,0,-0.1701,-0.17,-0.1701,-0.1689,-0.1687,-0.1687,-0.1684,-0.1668,-0.1642,-0.1667,-0.1665,-0.1668,-0.1605,-0.1605,-0.1601,-0.1577,-0.1568,-0.1566,-0.1565,-0.1564,-0.1572,-0.1573,0,0,0,0,0,0,-0.1705,-0.17,-0.1701,-0.1701,-0.1692,-0.1688,-0.1685,-0.1683,-0.1643,-0.1638,-0.1669,-0.1666,-0.1609,-0.1603,-0.1598,-0.1597,-0.1565,-0.1563,-0.1562,-0.157,-0.1572,-0.1574,0,0,0,0,0,0,-0.1705,-0.1705,-0.1702,-0.1702,-0.1702,-0.1689,-0.1687,-0.1683,-0.1682,-0.1646,-0.1638,-0.1671,-0.1608,-0.16,-0.1591,-0.1594,-0.1563,-0.1561,-0.1569,-0.1571,-0.1573,-0.1604,0,0,0,0,0,0,-0.1705,-0.1705,-0.1705,-0.1703,-0.1702,-0.1718,-0.1688,-0.1684,-0.1687,-0.1683,-0.1645,-0.1637,-0.1607,-0.1595,-0.1589,-0.1591,-0.1559,-0.1567,-0.157,-0.1572,-0.1601,-0.1607,-0.1612,0,0,0,0,0,-0.1704,-0.171,-0.1704,-0.1705,-0.1702,-0.1719,-0.172,-0.1705,-0.1688,-0.1697,-0.1672,-0.1638,-0.1608,-0.1594,-0.1588,-0.1588,-0.1565,-0.1569,-0.1572,-0.1599,-0.1606,-0.1612,0,0,0,0,0,0,-0.1705,-0.1707,-0.17,-0.1704,-0.1715,-0.1713,-0.1716,-0.1712,-0.1702,-0.1689,-0.1653,-0.1644,-0.1638,-0.162,-0.1606,-0.1604,-0.1583,-0.1585,-0.1606,-0.1612,-0.1617,-0.1622,-0.1557,0,0,0,0,0,-0.1709,-0.1711,-0.1718,-0.1722,-0.1726,-0.1724,-0.1728,-0.1722,-0.1714,-0.1708,-0.1687,-0.1665,-0.165,-0.1635,-0.1623,-0.1619,-0.1601,-0.162,-0.1625,-0.1629,-0.1632,-0.1599,-0.16,-0.1585,-0.1584,-0.1584,0,0,-0.1707,-0.171,-0.1709,-0.1723,-0.1723,-0.1739,-0.1722,-0.1731,-0.1742,-0.17,-0.1703,-0.1684,-0.1657,-0.1652,-0.1648,-0.1632,-0.1633,-0.1634,-0.1637,-0.1637,-0.1602,-0.1603,-0.1604,-0.1587,-0.1586,-0.1586,0,0,-0.1716,-0.1712,-0.1721,-0.1735,-0.1747,-0.1749,-0.1756,-0.1763,-0.1761,-0.1768,-0.1741,-0.1729,-0.1708,-0.169,-0.1676,-0.1709,-0.1667,-0.1706,-0.1725,-0.1693,-0.1693,-0.1693,-0.1699,-0.1698,-0.1702,-0.1702,-0.1702,0,-0.1717,-0.1728,-0.1729,-0.1749,-0.176,-0.1757,-0.1776,-0.1781,-0.1786,-0.1787,-0.1772,-0.1746,-0.1725,-0.1711,-0.1725,-0.1717,-0.1703,-0.1695,-0.1697,-0.1696,-0.1695,-0.1701,-0.17,-0.1704,-0.1704,-0.1704,-0.1704,0,-0.1736,-0.175,-0.1758,-0.1778,-0.1793,-0.1809,-0.182,-0.1832,-0.1825,-0.1825,-0.1818,-0.1791,-0.1771,-0.1768,-0.1752,-0.1743,-0.1738,-0.1708,-0.1672,-0.1698,-0.1704,-0.1702,-0.1707,-0.1706,-0.1706,-0.1705,0,0,-0.1726,-0.1764,-0.1767,-0.1781,-0.1809,-0.1821,-0.1845,-0.1863,-0.1865,-0.1863,-0.1856,-0.1844,-0.1822,-0.1808,-0.1784,-0.176,-0.1755,-0.1735,-0.1732,-0.1729,-0.1707,-0.1593,-0.158,-0.1712,-0.1711,-0.1711,-0.1722,0,-0.174,-0.1776,-0.1797,-0.1829,-0.1844,-0.186,-0.188,-0.1894,-0.1893,-0.1887,-0.1861,-0.1841,-0.1839,-0.1813,-0.1796,-0.1748,-0.175,-0.1757,-0.1694,-0.1693,-0.1575,-0.1573,-0.1457,-0.1445,-0.1721,-0.1721,-0.172,0,-0.175,-0.1772,-0.1805,-0.1845,-0.1853,-0.1872,-0.1891,-0.1909,-0.1908,-0.1905,-0.1887,-0.1858,-0.1831,-0.1813,-0.1769,-0.1767,-0.1757,-0.173,-0.1728,-0.1604,-0.1573,-0.146,-0.1432,-0.1441,-0.1718,-0.1718,-0.1719,0,-0.1729,-0.1779,-0.18,-0.1815,-0.1857,-0.1873,-0.1891,-0.1906,-0.1904,-0.1901,-0.1876,-0.1858,-0.1814,-0.1789,-0.1748,-0.175,-0.1692,-0.1682,-0.1589,-0.1583,-0.1462,-0.1444,-0.1417,-0.1674,-0.1674,-0.1674,-0.1674,0,-0.1734,-0.1751,-0.1789,-0.1801,-0.181,-0.1854,-0.1856,-0.1879,-0.1881,-0.1852,-0.1868,-0.1828,-0.1798,-0.1758,-0.1745,-0.1648,-0.1692,-0.1589,-0.1562,-0.1473,-0.1457,-0.144,-0.1487,-0.1675,-0.1675,-0.1675,-0.1674,0,-0.1702,-0.1735,-0.1753,-0.1794,-0.1798,-0.1801,-0.1818,-0.18,-0.1835,-0.1791,-0.1779,-0.1784,-0.1726,-0.1707,-0.166,-0.1613,-0.1524,-0.1531,-0.1445,-0.1404,-0.1275,-0.1328,-0.1307,-0.1273,-0.1405,-0.1402,-0.1399,0,-0.1687,-0.1692,-0.1719,-0.1701,-0.1715,-0.1721,-0.1697,-0.1753,-0.1732,-0.1749,-0.1705,-0.1676,-0.1617,-0.1525,-0.1432,-0.1369,-0.1442,-0.1249,-0.1216,-0.124,-0.1282,-0.1356,-0.1336,-0.1103,-0.1099,-0.1095,-0.1092,0,-0.1636,-0.1644,-0.1647,-0.1606,-0.1585,-0.1559,-0.155,-0.1533,-0.1571,-0.1549,-0.1512,-0.148,-0.1408,-0.125,-0.1176,-0.1149,-0.1203,-0.1162,-0.1198,-0.1044,-0.1112,-0.1073,-0.1172,-0.1057,-0.106,-0.1063,-0.1065,-0.1066,-0.1568,-0.1547,-0.1525,-0.148,-0.1442,-0.1364,-0.1307,-0.1296,-0.1246,-0.1162,-0.1247,-0.1095,-0.1048,-0.0895,-0.0904,-0.0835,-0.0943,-0.0803,-0.0874,-0.0955,-0.088,-0.0908,-0.074,-0.0741,-0.0742,-0.0744,-0.0745,0,-0.1454,-0.1429,-0.1384,-0.1309,-0.1212,-0.1237,-0.1162,-0.1081,-0.097,-0.0869,-0.08,-0.0577,-0.0522,-0.0556,-0.0545,-0.0547,-0.0597,-0.0592,-0.0692,-0.0688,-0.0702,-0.0642,-0.0427,-0.0427,-0.0427,-0.0427,-0.0427,-0.0427,-0.1383,-0.1307,-0.1283,-0.1089,-0.1027,-0.0874,-0.0808,-0.0709,-0.0599,-0.0356,-0.0152,-0.0026,-0.016,-0.0413,-0.0519,-0.0512,-0.0583,-0.0553,-0.0644,-0.0679,-0.0706,-0.0732,-0.0684,-0.0481,-0.0482,-0.0568,-0.0569,-0.0569]},{"header":{"parameterUnit":"m.s-1","parameterCategory":2,"la1":30.2991,"la2":30.254,"lo1":-89.0895,"lo2":-89.0444,"dy":0.0017,"dx":0.0017,"nx":28,"ny":28,"refTime":"2025-04-14T03:00:00:Z","depth":"0","parameterNumber":3,"parameterNumberName":"V-component_of_CURRENTS"},"data":[0,0,0,0,0,0,0,0,0,0,0,0,0,0,0,0,0,0,0,0,0,0,0,0,0,0,0,0,0,0,0,0,0,0,0,0,0,0,0,0,0,0,0,0,0,0,0,0,0,0,0,0,0,0,0,0,0,0,0.0415,0.0416,0,0.0449,0.045,0.045,0.0481,0.0481,0.0481,0.0482,0.0561,0.0562,0.0564,0,0,0,0,0,0,0,0,0,0,0,0,0,0.04,0.04,0.0415,0.0416,0.0416,0.0449,0.045,0.045,0.0481,0.0481,0.0481,0.0482,0.056,0.0562,0.0564,0,0,0,0,0,0,0,0,0,0,0,0,0,0.0418,0.04,0.0415,0.0434,0.0436,0.0449,0.045,0.0451,0.0481,0.0481,0.0482,0.0482,0.0559,0.0562,0.0565,0.0574,0,0,0.0573,0.0574,0,0,0,0,0,0,0,0,0.0417,0.0419,0.0431,0.0433,0.0435,0.046,0.0473,0.0494,0.0481,0.0465,0.0482,0.0482,0.053,0.0535,0.0542,0.0578,0.0581,0.0573,0.0575,0.0576,0.0577,0,0,0,0,0,0,0,0.0416,0.0418,0.043,0.0431,0.0434,0.0449,0.0452,0.0477,0.0497,0.0467,0.0469,0.047,0.0532,0.0539,0.0544,0.0582,0.0573,0.0576,0.0578,0.0579,0.062,0.062,0,0,0,0,0,0,0.0408,0.0416,0.0429,0.0431,0.0426,0.0449,0.0452,0.0453,0.0496,0.0502,0.047,0.0472,0.0534,0.0541,0.0547,0.0531,0.0576,0.0579,0.0581,0.0621,0.062,0.062,0,0,0,0,0,0,0.0407,0.0408,0.0428,0.0424,0.0427,0.0448,0.0449,0.0453,0.0459,0.0497,0.0505,0.0471,0.0535,0.0543,0.0563,0.0536,0.058,0.0583,0.0622,0.0621,0.062,0.0519,0,0,0,0,0,0,0.0406,0.0408,0.0407,0.0423,0.0427,0.0423,0.0449,0.0454,0.0459,0.0462,0.0501,0.0509,0.0536,0.0559,0.0566,0.0541,0.0585,0.0622,0.0621,0.062,0.0524,0.0515,0.0508,0,0,0,0,0,0.0406,0.0394,0.0406,0.0408,0.0424,0.0422,0.0425,0.0443,0.0459,0.0452,0.0483,0.0508,0.0557,0.0561,0.0569,0.0544,0.0623,0.0621,0.062,0.0527,0.0517,0.0508,0,0,0,0,0,0,0.038,0.0397,0.041,0.0403,0.0409,0.0427,0.0421,0.0439,0.0458,0.0463,0.0504,0.0513,0.0521,0.0551,0.0554,0.0555,0.0593,0.0593,0.0519,0.051,0.0503,0.0477,0.0587,0,0,0,0,0,0.0376,0.0377,0.039,0.0385,0.0383,0.0404,0.0407,0.042,0.0438,0.0447,0.0474,0.0504,0.0522,0.0531,0.0557,0.0558,0.0575,0.0548,0.054,0.0533,0.0519,0.0538,0.053,0.0615,0.0615,0.0615,0,0,0.0364,0.0374,0.0374,0.0381,0.0386,0.0366,0.0406,0.0403,0.0384,0.0453,0.044,0.0482,0.0519,0.0518,0.0523,0.0538,0.0513,0.0532,0.0525,0.0515,0.0536,0.0527,0.052,0.0614,0.0615,0.0615,0,0,0.0332,0.0347,0.0333,0.033,0.0336,0.0343,0.0339,0.0353,0.0354,0.0359,0.0397,0.042,0.0454,0.0464,0.0476,0.0445,0.0477,0.0457,0.039,0.0408,0.04,0.0394,0.0379,0.0372,0.0447,0.0447,0.0447,0,0.0314,0.0299,0.0326,0.0303,0.0286,0.0324,0.0287,0.0291,0.0312,0.0306,0.0342,0.0389,0.0421,0.041,0.0395,0.0423,0.0434,0.0417,0.0395,0.039,0.0385,0.0372,0.0366,0.0442,0.0443,0.0443,0.0444,0,0.0267,0.025,0.0235,0.0218,0.0205,0.0181,0.0183,0.0178,0.0197,0.021,0.0219,0.0277,0.0303,0.0315,0.0343,0.0321,0.0338,0.0386,0.0412,0.037,0.0359,0.0354,0.0435,0.0437,0.0438,0.0439,0,0,0.0222,0.0205,0.0196,0.0165,0.0153,0.013,0.0096,0.007,0.0049,0.009,0.0071,0.0109,0.016,0.0178,0.0226,0.0238,0.0207,0.0288,0.0291,0.026,0.022,0.0342,0.0349,0.0257,0.0256,0.0255,0.0215,0,0.0167,0.0107,0.0112,0.0035,-0.0007,0.0003,-0.0036,-0.0048,-0.003,-0.0033,0.0024,0.0043,0.01,0.0127,0.0141,0.02,0.0195,0.0211,0.0277,0.0278,0.0382,0.0349,0.0461,0.0447,0.0211,0.0211,0.021,0,0.0104,0.0071,-0.0003,-0.0068,-0.0088,-0.0122,-0.0177,-0.0199,-0.0188,-0.0168,-0.0131,-0.0069,-0.0052,0.0027,0.007,0.0081,0.013,0.0178,0.0179,0.0326,0.0393,0.0458,0.0448,0.0573,0.0204,0.0204,0.0205,0,0.0042,-0.0024,-0.0087,-0.0109,-0.0162,-0.02,-0.0227,-0.0237,-0.0259,-0.0236,-0.0227,-0.0183,-0.015,-0.0082,0.0018,0.004,0.0079,0.0127,0.0271,0.0278,0.0404,0.0426,0.0517,0.0151,0.0151,0.0151,0.0151,0,-0.0031,-0.0089,-0.0118,-0.0158,-0.0247,-0.0258,-0.0326,-0.0339,-0.0336,-0.0363,-0.0288,-0.0293,-0.017,-0.0118,-0.0029,0.0105,0.0039,0.0246,0.0283,0.0373,0.0391,0.0534,0.0568,0.0149,0.015,0.015,0.015,0,-0.0092,-0.0107,-0.0188,-0.0249,-0.0275,-0.0334,-0.0391,-0.0421,-0.0413,-0.0437,-0.0429,-0.0388,-0.0308,-0.0179,-0.0073,0.0054,0.0273,0.0229,0.0315,0.0366,0.0663,0.0687,0.0784,0.0895,0.038,0.0383,0.0386,0,-0.0131,-0.0168,-0.0249,-0.0293,-0.0322,-0.0394,-0.0436,-0.0457,-0.0476,-0.0504,-0.0516,-0.0452,-0.0381,-0.0173,0.0064,0.0264,0.0352,0.0485,0.0571,0.069,0.0742,0.074,0.0826,0.0668,0.0673,0.0676,0.0679,0,-0.0199,-0.021,-0.0264,-0.0344,-0.0403,-0.0469,-0.0522,-0.0555,-0.057,-0.0591,-0.0617,-0.0562,-0.0321,-0.0014,0.0305,0.0427,0.0633,0.0572,0.0676,0.0962,0.0982,0.1105,0.0648,0.0712,0.0709,0.0707,0.0705,0.0704,-0.0235,-0.0277,-0.0319,-0.0397,-0.0456,-0.0508,-0.0542,-0.058,-0.0618,-0.0593,-0.0628,-0.045,0.0006,0.0489,0.0582,0.0962,0.0888,0.1115,0.112,0.1095,0.1264,0.0877,0.1016,0.1014,0.1013,0.1012,0.1011,0,-0.0276,-0.0301,-0.0369,-0.0441,-0.0483,-0.0511,-0.0567,-0.0561,-0.058,-0.051,-0.0476,0.0064,0.0503,0.0869,0.1369,0.1522,0.1526,0.1581,0.1593,0.1648,0.1297,0.1379,0.1629,0.1628,0.1628,0.1628,0.1628,0.1628,-0.0295,-0.0345,-0.0367,-0.0429,-0.0467,-0.0498,-0.0513,-0.0499,-0.0424,-0.0196,0.0107,0.0363,0.0931,0.1491,0.188,0.1915,0.2025,0.2009,0.2042,0.1791,0.1747,0.1705,0.1792,0.2124,0.2125,0.2434,0.2437,0.2439]}],[{"header":{"parameterUnit":"m.s-1","parameterCategory":2,"la1":30.2991,"la2":30.254,"lo1":-89.0895,"lo2":-89.0444,"dy":0.0017,"dx":0.0017,"nx":28,"ny":28,"refTime":"2025-04-14T03:00:00:Z","depth":"2","parameterNumber":2,"parameterNumberName":"U-component_of_CURRENTS"},"data":[0,0,0,0,0,0,0,0,0,0,0,0,0,0,0,0,0,0,0,0,0,0,0,0,0,0,0,0,0,0,0,0,0,0,0,0,0,0,0,0,0,0,0,0,0,0,0,0,0,0,0,0,0,0,0,0,0,0,-0.2428,-0.2429,0,-0.2467,-0.2467,-0.2466,-0.2335,-0.2332,-0.2329,-0.2326,-0.2283,-0.2285,-0.2287,0,0,0,0,0,0,0,0,0,0,0,0,0,-0.2212,-0.2216,-0.2428,-0.243,-0.2431,-0.2467,-0.2467,-0.2466,-0.2335,-0.2332,-0.2328,-0.2325,-0.2283,-0.2285,-0.2287,0,0,0,0,0,0,0,0,0,0,0,0,0,-0.2274,-0.2217,-0.2428,-0.2378,-0.2375,-0.2468,-0.2467,-0.2466,-0.2336,-0.2332,-0.2327,-0.2323,-0.2282,-0.2284,-0.2287,-0.2392,0,0,-0.2294,-0.2296,0,0,0,0,0,0,0,0,-0.2271,-0.2281,-0.2384,-0.2382,-0.2378,-0.2401,-0.2376,-0.2441,-0.2337,-0.2339,-0.2326,-0.2321,-0.2326,-0.2324,-0.2327,-0.239,-0.2388,-0.2295,-0.2296,-0.2297,-0.2298,0,0,0,0,0,0,0,-0.2266,-0.2278,-0.2433,-0.2386,-0.2383,-0.2345,-0.2348,-0.2387,-0.2347,-0.2339,-0.2332,-0.2355,-0.2321,-0.2325,-0.2325,-0.2387,-0.2295,-0.2297,-0.2298,-0.2299,-0.2517,-0.2522,0,0,0,0,0,0,-0.2291,-0.2275,-0.2432,-0.2435,-0.2324,-0.2353,-0.2356,-0.2389,-0.2348,-0.2342,-0.2359,-0.2349,-0.2323,-0.2323,-0.2323,-0.2389,-0.2297,-0.23,-0.2301,-0.2513,-0.2518,-0.2523,0,0,0,0,0,0,-0.2286,-0.2305,-0.243,-0.2363,-0.2377,-0.2363,-0.2401,-0.2393,-0.2355,-0.2367,-0.2354,-0.2325,-0.232,-0.232,-0.2381,-0.2388,-0.2301,-0.2303,-0.2508,-0.2515,-0.2521,-0.2557,0,0,0,0,0,0,-0.228,-0.2303,-0.2324,-0.2366,-0.2383,-0.2484,-0.2406,-0.2397,-0.2384,-0.237,-0.2337,-0.2329,-0.2316,-0.2379,-0.2384,-0.239,-0.2305,-0.2503,-0.2511,-0.2519,-0.255,-0.2564,-0.2575,0,0,0,0,0,-0.2272,-0.2324,-0.2325,-0.2343,-0.2416,-0.2487,-0.2492,-0.2457,-0.2387,-0.2397,-0.2396,-0.2328,-0.2432,-0.2386,-0.2391,-0.2396,-0.2499,-0.2509,-0.2518,-0.2544,-0.2561,-0.2575,0,0,0,0,0,0,-0.2237,-0.2319,-0.2318,-0.2391,-0.2437,-0.2468,-0.2478,-0.2452,-0.2456,-0.2428,-0.2398,-0.2398,-0.2443,-0.2451,-0.2399,-0.2494,-0.2449,-0.246,-0.2467,-0.2483,-0.2495,-0.2481,-0.2307,0,0,0,0,0,-0.225,-0.2305,-0.2374,-0.2429,-0.245,-0.2456,-0.2471,-0.246,-0.2481,-0.247,-0.2445,-0.2454,-0.2502,-0.2512,-0.2545,-0.2614,-0.2547,-0.2624,-0.2636,-0.2646,-0.2647,-0.259,-0.2594,-0.2555,-0.2555,-0.2555,0,0,-0.2248,-0.2306,-0.2331,-0.2425,-0.2442,-0.2505,-0.2448,-0.2484,-0.252,-0.2476,-0.2485,-0.249,-0.2535,-0.26,-0.262,-0.2595,-0.2621,-0.2659,-0.2666,-0.2661,-0.26,-0.2603,-0.2605,-0.2562,-0.256,-0.2559,0,0,-0.2285,-0.2325,-0.2377,-0.243,-0.2494,-0.2523,-0.253,-0.2552,-0.2535,-0.2585,-0.2567,-0.2604,-0.263,-0.2684,-0.2716,-0.2836,-0.2687,-0.2817,-0.2861,-0.2806,-0.2806,-0.2806,-0.2687,-0.2676,-0.2823,-0.2823,-0.2823,0,-0.2269,-0.236,-0.2402,-0.2474,-0.2521,-0.253,-0.2593,-0.2616,-0.2648,-0.2653,-0.2588,-0.2656,-0.2682,-0.2799,-0.2834,-0.2857,-0.2757,-0.2784,-0.2812,-0.2811,-0.2809,-0.2688,-0.2675,-0.2826,-0.2826,-0.2826,-0.2825,0,-0.2355,-0.2418,-0.2454,-0.2553,-0.2616,-0.2672,-0.2736,-0.275,-0.2712,-0.2721,-0.2762,-0.28,-0.2831,-0.2853,-0.2874,-0.2912,-0.2817,-0.282,-0.2747,-0.2813,-0.2684,-0.2669,-0.283,-0.2829,-0.2828,-0.2828,0,0,-0.232,-0.2479,-0.2482,-0.2558,-0.2656,-0.2736,-0.2795,-0.2871,-0.2896,-0.2881,-0.2886,-0.2986,-0.2939,-0.2979,-0.2997,-0.2967,-0.2874,-0.2874,-0.287,-0.2708,-0.2658,-0.258,-0.2555,-0.2832,-0.2831,-0.2831,-0.2553,0,-0.2353,-0.2515,-0.2572,-0.2714,-0.2806,-0.2846,-0.292,-0.2988,-0.298,-0.2985,-0.2998,-0.3022,-0.3012,-0.3006,-0.2979,-0.2908,-0.2842,-0.2944,-0.2661,-0.2653,-0.2536,-0.2541,-0.2378,-0.2116,-0.2538,-0.2535,-0.2533,0,-0.2391,-0.2518,-0.2652,-0.2834,-0.2869,-0.2922,-0.3029,-0.3102,-0.3127,-0.3113,-0.3104,-0.3073,-0.3078,-0.3027,-0.2891,-0.2926,-0.2793,-0.2713,-0.27,-0.2607,-0.255,-0.2134,-0.2073,-0.2507,-0.251,-0.2511,-0.2513,0,-0.2373,-0.2564,-0.268,-0.274,-0.2935,-0.2953,-0.3023,-0.309,-0.3128,-0.3154,-0.3105,-0.3123,-0.3053,-0.2938,-0.2761,-0.2796,-0.2524,-0.2567,-0.237,-0.2359,-0.2163,-0.2139,-0.2438,-0.2438,-0.2439,-0.2439,-0.244,0,-0.2382,-0.248,-0.2666,-0.2728,-0.2845,-0.2971,-0.3023,-0.3092,-0.3124,-0.3116,-0.3137,-0.3063,-0.3006,-0.2838,-0.2717,-0.2459,-0.2478,-0.2355,-0.2292,-0.2173,-0.2155,-0.2472,-0.248,-0.2429,-0.2431,-0.2433,-0.2435,0,-0.23,-0.2434,-0.258,-0.2772,-0.2818,-0.2882,-0.2971,-0.3009,-0.3057,-0.3009,-0.2996,-0.2959,-0.2757,-0.265,-0.2441,-0.2365,-0.2179,-0.2077,-0.1914,-0.1841,-0.2056,-0.207,-0.1858,-0.1853,-0.1849,-0.1845,-0.1843,0,-0.2267,-0.2339,-0.2546,-0.2596,-0.2637,-0.2742,-0.2785,-0.2926,-0.2925,-0.2896,-0.2828,-0.2677,-0.2505,-0.2196,-0.2047,-0.182,-0.1948,-0.1589,-0.1704,-0.2041,-0.2001,-0.2022,-0.2041,-0.1419,-0.1413,-0.1408,-0.1404,0,-0.2188,-0.2237,-0.2338,-0.2434,-0.2486,-0.2596,-0.2632,-0.2619,-0.2721,-0.2659,-0.2501,-0.2371,-0.2109,-0.1824,-0.1606,-0.1479,-0.1645,-0.1484,-0.1822,-0.1637,-0.1619,-0.1584,-0.1617,-0.136,-0.1364,-0.1368,-0.137,-0.1372,-0.2058,-0.2086,-0.2178,-0.2243,-0.2324,-0.2345,-0.2309,-0.2339,-0.2291,-0.2127,-0.2128,-0.1896,-0.1867,-0.1457,-0.1258,-0.1121,-0.1267,-0.1247,-0.1265,-0.1288,-0.1333,-0.1314,-0.1,-0.1002,-0.1004,-0.1006,-0.1007,0,-0.1898,-0.1936,-0.1987,-0.2044,-0.2004,-0.2147,-0.2147,-0.2053,-0.1874,-0.1782,-0.161,-0.1427,-0.1198,-0.1151,-0.084,-0.0766,-0.0792,-0.0758,-0.0805,-0.0848,-0.0886,-0.0916,-0.0468,-0.0467,-0.0466,-0.0464,0,0,-0.1815,-0.1782,-0.1811,-0.1689,-0.1716,-0.1642,-0.1591,-0.1499,-0.1399,-0.1174,-0.1084,-0.1127,-0.1141,-0.0872,-0.0736,-0.0524,-0.0686,-0.0485,-0.0911,-0.1007,-0.1044,-0.115,-0.1241,0,0,0,0,0]},{"header":{"parameterUnit":"m.s-1","parameterCategory":2,"la1":30.2991,"la2":30.254,"lo1":-89.0895,"lo2":-89.0444,"dy":0.0017,"dx":0.0017,"nx":28,"ny":28,"refTime":"2025-04-14T03:00:00:Z","depth":"2","parameterNumber":3,"parameterNumberName":"V-component_of_CURRENTS"},"data":[0,0,0,0,0,0,0,0,0,0,0,0,0,0,0,0,0,0,0,0,0,0,0,0,0,0,0,0,0,0,0,0,0,0,0,0,0,0,0,0,0,0,0,0,0,0,0,0,0,0,0,0,0,0,0,0,0,0,-0.0143,-0.0142,0,-0.0052,-0.0051,-0.0049,0.0033,0.0034,0.0034,0.0035,0.0109,0.011,0.0112,0,0,0,0,0,0,0,0,0,0,0,0,0,-0.0082,-0.0084,-0.0143,-0.0142,-0.0142,-0.0052,-0.0051,-0.0049,0.0033,0.0034,0.0035,0.0035,0.0108,0.011,0.0112,0,0,0,0,0,0,0,0,0,0,0,0,0,-0.0058,-0.0085,-0.0143,-0.0093,-0.0088,-0.0053,-0.0051,-0.0049,0.0033,0.0034,0.0035,0.0036,0.0108,0.011,0.0112,0.0108,0,0,0.0119,0.012,0,0,0,0,0,0,0,0,-0.0059,-0.006,-0.0101,-0.0097,-0.0091,-0.0024,-0.0002,0.0001,0.0033,-0.0008,0.0035,0.0036,0.0059,0.0065,0.0087,0.0111,0.0115,0.0119,0.012,0.0121,0.0122,0,0,0,0,0,0,0,-0.0061,-0.0062,-0.0102,-0.0101,-0.0094,-0.0019,-0.0016,0.0,0.0023,-0.0005,0.0001,0.0003,0.0063,0.0085,0.009,0.0116,0.0119,0.0121,0.0122,0.0123,0.0154,0.0153,0,0,0,0,0,0,-0.0092,-0.0065,-0.0105,-0.01,-0.0078,-0.0022,-0.0018,-0.0043,0.0023,0.0033,0.0002,0.0007,0.0081,0.0087,0.0092,0.01,0.0121,0.0123,0.0124,0.0154,0.0154,0.0153,0,0,0,0,0,0,-0.0091,-0.0098,-0.0109,-0.0082,-0.0079,-0.0026,-0.0053,-0.0041,-0.0005,0.0028,0.0038,0.0028,0.0082,0.0089,0.0092,0.0103,0.0124,0.0126,0.0155,0.0154,0.0154,0.011,0,0,0,0,0,0,-0.0091,-0.0099,-0.0112,-0.0085,-0.0082,-0.0095,-0.0054,-0.004,-0.0008,-0.0001,0.0052,0.006,0.0083,0.0088,0.0094,0.0107,0.0128,0.0155,0.0155,0.0154,0.0112,0.0108,0.0104,0,0,0,0,0,-0.0089,-0.0123,-0.0114,-0.0117,-0.0108,-0.0096,-0.0087,-0.0041,-0.0008,-0.0001,0.0023,0.0059,0.0088,0.0089,0.0096,0.011,0.0156,0.0155,0.0154,0.0114,0.0109,0.0105,0,0,0,0,0,0,-0.0105,-0.0118,-0.0106,-0.0143,-0.0122,-0.0084,-0.007,-0.0038,-0.0008,-0.0001,0.0042,0.0049,0.006,0.0083,0.0083,0.0115,0.0133,0.0133,0.01,0.0096,0.0092,0.0094,0.0129,0,0,0,0,0,-0.0119,-0.0146,-0.0136,-0.0161,-0.0151,-0.0105,-0.0088,-0.0065,-0.0042,-0.0024,0.0016,0.0046,0.006,0.0074,0.0092,0.0102,0.014,0.0118,0.0115,0.0111,0.0117,0.0237,0.0246,0.015,0.015,0.015,0,0,-0.0123,-0.0141,-0.0149,-0.0165,-0.0137,-0.0142,-0.0091,-0.0077,-0.0072,-0.0025,0.0004,0.0032,0.0057,0.0068,0.0077,0.009,0.0136,0.011,0.0107,0.0114,0.0237,0.0247,0.0256,0.0149,0.0149,0.0149,0,0,-0.016,-0.0169,-0.0198,-0.0189,-0.0177,-0.016,-0.0158,-0.0116,-0.0083,-0.0072,-0.0033,0.0009,0.0027,0.0066,0.008,0.0069,0.011,0.0063,0.0052,0.0169,0.0179,0.0188,0.0155,0.0162,0.0066,0.0066,0.0066,0,-0.0161,-0.0213,-0.0198,-0.0221,-0.0218,-0.0173,-0.019,-0.0159,-0.012,-0.0084,-0.0073,0.0021,0.0037,0.0084,0.0056,0.0067,0.0081,0.0067,0.0167,0.0178,0.0189,0.0153,0.0162,0.0064,0.0064,0.0064,0.0065,0,-0.0223,-0.0247,-0.026,-0.0285,-0.0278,-0.0287,-0.0257,-0.0228,-0.0184,-0.0134,-0.0059,-0.0011,0.0047,0.006,0.0035,0.0113,0.0073,0.0148,0.0184,0.0197,0.0156,0.0166,0.0061,0.0062,0.0062,0.0063,0,0,-0.0262,-0.0297,-0.0298,-0.0314,-0.0314,-0.032,-0.0306,-0.0269,-0.0213,-0.0153,-0.0067,-0.0041,0.0022,0.004,0.0069,0.0156,0.0188,0.0154,0.0161,0.0123,0.033,0.039,0.0406,0.0289,0.0292,0.0295,0.0236,0,-0.0306,-0.0384,-0.0374,-0.0413,-0.0446,-0.0393,-0.0369,-0.0323,-0.0249,-0.0152,-0.0053,0.0025,0.0005,0.0044,0.012,0.0185,0.0227,0.019,0.032,0.032,0.0383,0.0428,0.0381,0.0337,0.0246,0.0248,0.0249,0,-0.0368,-0.042,-0.0482,-0.0481,-0.0477,-0.0477,-0.0412,-0.0388,-0.0247,-0.0173,-0.0064,0.0025,0.01,0.0132,0.0242,0.0211,0.0238,0.0303,0.0305,0.0399,0.0407,0.033,0.0359,0.0266,0.0265,0.0264,0.0263,0,-0.0444,-0.0481,-0.0541,-0.0548,-0.0541,-0.0522,-0.0503,-0.0389,-0.0335,-0.0179,-0.0112,0.0034,0.0086,0.0205,0.0235,0.0255,0.037,0.044,0.0512,0.0509,0.0518,0.0514,0.0554,0.0554,0.0554,0.0554,0.0555,0,-0.0525,-0.0556,-0.0575,-0.0611,-0.0629,-0.0589,-0.0545,-0.0481,-0.0345,-0.028,-0.0145,-0.0058,0.0118,0.019,0.0248,0.0364,0.0368,0.0513,0.0544,0.0488,0.0483,0.0486,0.0479,0.0552,0.0552,0.0553,0.0553,0,-0.0601,-0.0618,-0.0673,-0.0677,-0.0677,-0.0691,-0.0624,-0.0569,-0.0453,-0.0364,-0.0325,-0.0143,-0.0032,0.0089,0.0266,0.0365,0.05,0.0528,0.0367,0.0388,0.0539,0.053,0.0664,0.0666,0.0669,0.067,0.0672,0,-0.0642,-0.0696,-0.0739,-0.0769,-0.0771,-0.0776,-0.0758,-0.0648,-0.0587,-0.0427,-0.039,-0.0238,-0.0109,0.013,0.032,0.0469,0.0477,0.0555,0.0668,0.0556,0.0572,0.0559,0.0547,0.0578,0.0578,0.0579,0.0579,0,-0.0718,-0.0728,-0.0779,-0.0858,-0.0871,-0.0885,-0.0856,-0.0831,-0.07,-0.0602,-0.0472,-0.0335,-0.0087,0.0154,0.0382,0.0473,0.0556,0.0583,0.0548,0.0597,0.0485,0.0497,0.0487,0.0585,0.0584,0.0584,0.0583,0.0583,-0.0733,-0.0796,-0.0862,-0.0934,-0.0954,-0.0982,-0.0989,-0.0926,-0.085,-0.0682,-0.0559,-0.0272,-0.0011,0.0408,0.0482,0.0578,0.0625,0.0712,0.0706,0.07,0.0742,0.0647,0.0771,0.0772,0.0772,0.0773,0.0773,0,-0.076,-0.0845,-0.0931,-0.1014,-0.1046,-0.1037,-0.103,-0.0988,-0.0916,-0.0691,-0.052,-0.0131,0.0182,0.0411,0.0575,0.0711,0.0655,0.0733,0.0637,0.0632,0.0628,0.0663,0.0672,0.0672,0.0672,0.0672,0,0,-0.0782,-0.0887,-0.0968,-0.1071,-0.111,-0.1122,-0.1119,-0.1038,-0.0858,-0.0648,-0.0353,0.0004,0.0334,0.0471,0.0549,0.06,0.0577,0.0595,0.0664,0.0529,0.0523,0.0608,0.0658,0,0,0,0,0]}],[{"header":{"parameterUnit":"m.s-1","parameterCategory":2,"la1":30.2991,"la2":30.254,"lo1":-89.0895,"lo2":-89.0444,"dy":0.0017,"dx":0.0017,"nx":28,"ny":28,"refTime":"2025-04-14T03:00:00:Z","depth":"4","parameterNumber":2,"parameterNumberName":"U-component_of_CURRENTS"},"data":[0,0,0,0,0,0,0,0,0,0,0,0,0,0,0,0,0,0,0,0,0,0,0,0,0,0,0,0,0,0,0,0,0,0,0,0,0,0,0,0,0,0,0,0,0,0,0,0,0,0,0,0,0,0,0,0,0,0,-0.1361,-0.1362,0,-0.14,-0.1401,-0.1401,-0.1412,-0.1412,-0.1412,-0.1412,-0.1475,-0.1477,-0.1478,0,0,0,0,0,0,0,0,0,0,0,0,0,-0.125,-0.1252,-0.1361,-0.1362,-0.1363,-0.14,-0.1401,-0.1401,-0.1412,-0.1412,-0.1412,-0.1412,-0.1475,-0.1477,-0.1479,0,0,0,0,0,0,0,0,0,0,0,0,0,-0.1292,-0.1253,-0.1361,-0.1375,-0.1377,-0.14,-0.1401,-0.1401,-0.1412,-0.1412,-0.1412,-0.1412,-0.1474,-0.1477,-0.1479,-0.1492,0,0,-0.1486,-0.1487,0,0,0,0,0,0,0,0,-0.129,-0.1296,-0.1372,-0.1374,-0.1376,-0.1404,-0.1385,-0.1434,-0.1412,-0.1395,-0.1412,-0.1412,-0.1456,-0.146,-0.1462,-0.1495,-0.1497,-0.1487,-0.1488,-0.1489,-0.149,0,0,0,0,0,0,0,-0.1287,-0.1294,-0.1374,-0.1373,-0.1376,-0.1364,-0.137,-0.1394,-0.1423,-0.1397,-0.1399,-0.1408,-0.1457,-0.146,-0.1464,-0.1498,-0.1486,-0.1489,-0.149,-0.1491,-0.1632,-0.1634,0,0,0,0,0,0,-0.1291,-0.1292,-0.1373,-0.1375,-0.1336,-0.1366,-0.1373,-0.1393,-0.1422,-0.1427,-0.1408,-0.1408,-0.1455,-0.1461,-0.1466,-0.1555,-0.1489,-0.1491,-0.1493,-0.163,-0.1632,-0.1635,0,0,0,0,0,0,-0.1289,-0.1298,-0.1371,-0.1336,-0.1345,-0.1369,-0.139,-0.1393,-0.1412,-0.143,-0.1435,-0.1426,-0.1456,-0.1463,-0.1503,-0.1555,-0.1492,-0.1495,-0.1627,-0.1631,-0.1634,-0.1688,0,0,0,0,0,0,-0.1285,-0.1297,-0.1322,-0.1337,-0.1347,-0.139,-0.1391,-0.1394,-0.1419,-0.142,-0.1447,-0.1452,-0.1456,-0.1499,-0.1505,-0.1557,-0.1496,-0.1624,-0.1629,-0.1633,-0.1683,-0.1693,-0.1701,0,0,0,0,0,-0.1281,-0.1311,-0.1323,-0.1333,-0.1377,-0.139,-0.1394,-0.1409,-0.142,-0.1426,-0.1452,-0.1452,-0.1531,-0.1502,-0.1509,-0.1563,-0.1622,-0.1627,-0.1632,-0.1679,-0.1691,-0.1701,0,0,0,0,0,0,-0.1274,-0.1316,-0.1329,-0.137,-0.1383,-0.1394,-0.1411,-0.142,-0.1445,-0.1456,-0.1468,-0.1475,-0.1534,-0.154,-0.1508,-0.1619,-0.1583,-0.1589,-0.1616,-0.1627,-0.1636,-0.1595,-0.1498,0,0,0,0,0,-0.1285,-0.1323,-0.1344,-0.1379,-0.1387,-0.1403,-0.1415,-0.1424,-0.1444,-0.1456,-0.1479,-0.1516,-0.1559,-0.1584,-0.1611,-0.1665,-0.1639,-0.171,-0.1719,-0.1726,-0.17,-0.1715,-0.1721,-0.1652,-0.1652,-0.1652,0,0,-0.1293,-0.1322,-0.1344,-0.1381,-0.1394,-0.1414,-0.141,-0.1433,-0.1461,-0.146,-0.1514,-0.1542,-0.1578,-0.1639,-0.1668,-0.1653,-0.1736,-0.1733,-0.1738,-0.1707,-0.172,-0.1727,-0.1732,-0.1655,-0.1655,-0.1654,0,0,-0.1312,-0.1351,-0.1379,-0.1394,-0.1422,-0.1435,-0.1445,-0.1468,-0.1489,-0.1538,-0.1556,-0.1583,-0.1669,-0.1677,-0.1701,-0.1769,-0.1777,-0.1833,-0.1849,-0.1866,-0.1871,-0.1874,-0.1853,-0.1855,-0.1843,-0.1843,-0.1843,0,-0.1318,-0.1358,-0.1385,-0.1408,-0.1427,-0.1447,-0.1466,-0.1495,-0.1531,-0.1545,-0.1565,-0.1658,-0.1669,-0.1729,-0.1763,-0.1782,-0.1806,-0.1805,-0.1874,-0.1877,-0.188,-0.1858,-0.1858,-0.1846,-0.1846,-0.1846,-0.1845,0,-0.1344,-0.1381,-0.1396,-0.1441,-0.1464,-0.1483,-0.1519,-0.1548,-0.1588,-0.1607,-0.1673,-0.1697,-0.1738,-0.1779,-0.1797,-0.1852,-0.1866,-0.1877,-0.1838,-0.189,-0.1864,-0.1863,-0.1851,-0.185,-0.1849,-0.1848,0,0,-0.1334,-0.1402,-0.1408,-0.1429,-0.148,-0.1496,-0.155,-0.1584,-0.1611,-0.1668,-0.1706,-0.177,-0.1778,-0.1803,-0.184,-0.1863,-0.1893,-0.1904,-0.1903,-0.1864,-0.1942,-0.1798,-0.1784,-0.196,-0.1961,-0.1961,-0.1916,0,-0.134,-0.1391,-0.1426,-0.147,-0.149,-0.1528,-0.1573,-0.1611,-0.1654,-0.1697,-0.173,-0.1781,-0.1799,-0.1836,-0.1863,-0.1901,-0.1899,-0.1903,-0.1912,-0.1909,-0.176,-0.1779,-0.1962,-0.1915,-0.1915,-0.1915,-0.1915,0,-0.1338,-0.1376,-0.1425,-0.1479,-0.1491,-0.1528,-0.1584,-0.1626,-0.1683,-0.1718,-0.1764,-0.1799,-0.1841,-0.1851,-0.1896,-0.1929,-0.1924,-0.1935,-0.1935,-0.1769,-0.1764,-0.1854,-0.1913,-0.1913,-0.1914,-0.1914,-0.1914,0,-0.1302,-0.1366,-0.1411,-0.143,-0.1501,-0.1531,-0.1572,-0.1628,-0.1662,-0.173,-0.1767,-0.1817,-0.1859,-0.1886,-0.1894,-0.1928,-0.193,-0.1961,-0.1803,-0.1793,-0.1911,-0.1907,-0.1942,-0.1942,-0.1942,-0.1942,-0.1942,0,-0.1279,-0.1309,-0.1402,-0.1421,-0.1459,-0.1522,-0.1561,-0.1605,-0.1676,-0.1706,-0.178,-0.1811,-0.1886,-0.1898,-0.19,-0.1836,-0.1918,-0.1777,-0.1767,-0.1938,-0.1938,-0.191,-0.1907,-0.194,-0.1941,-0.1941,-0.1941,0,-0.1223,-0.1289,-0.1334,-0.142,-0.1443,-0.1475,-0.1549,-0.1575,-0.1661,-0.171,-0.1739,-0.1825,-0.1827,-0.1844,-0.1857,-0.1814,-0.1774,-0.1715,-0.1861,-0.1865,-0.1625,-0.1627,-0.1544,-0.1538,-0.1534,-0.153,-0.1527,0,-0.1192,-0.122,-0.1318,-0.1339,-0.1379,-0.1431,-0.1461,-0.1553,-0.1582,-0.1695,-0.1714,-0.175,-0.1775,-0.1669,-0.1707,-0.164,-0.1621,-0.1593,-0.1626,-0.1583,-0.1583,-0.1592,-0.1599,-0.1519,-0.1518,-0.1517,-0.1515,0,-0.1123,-0.1182,-0.1222,-0.1268,-0.1312,-0.1345,-0.1401,-0.1414,-0.1518,-0.1617,-0.1622,-0.1607,-0.1589,-0.1569,-0.1504,-0.1473,-0.1622,-0.1544,-0.1554,-0.1586,-0.1553,-0.1559,-0.1571,-0.1499,-0.1501,-0.1503,-0.1504,0,-0.1065,-0.1081,-0.1145,-0.117,-0.1223,-0.1241,-0.1283,-0.1311,-0.1354,-0.1485,-0.1474,-0.1512,-0.1569,-0.1479,-0.1437,-0.137,-0.1361,-0.1345,-0.1366,-0.1384,-0.1351,-0.1287,-0.1118,0,0,0,0,0,-0.0989,-0.1004,-0.103,-0.1062,-0.1115,-0.1143,-0.123,-0.1282,-0.1388,-0.1348,-0.1403,-0.1367,-0.1311,-0.1339,-0.123,-0.1355,-0.1362,-0.1227,-0.1354,-0.1408,-0.1427,-0.1402,0,0,0,0,0,0,-0.0941,-0.0975,-0.0995,-0.0963,-0.0962,-0.1011,-0.1065,-0.1145,-0.1124,-0.1233,-0.1197,-0.1281,-0.1229,-0.1326,-0.1196,-0.1198,-0.1251,-0.1248,-0.1244,-0.1398,-0.1415,-0.143,-0.1411,0,0,0,0,0]},{"header":{"parameterUnit":"m.s-1","parameterCategory":2,"la1":30.2991,"la2":30.254,"lo1":-89.0895,"lo2":-89.0444,"dy":0.0017,"dx":0.0017,"nx":28,"ny":28,"refTime":"2025-04-14T03:00:00:Z","depth":"4","parameterNumber":3,"parameterNumberName":"V-component_of_CURRENTS"},"data":[0,0,0,0,0,0,0,0,0,0,0,0,0,0,0,0,0,0,0,0,0,0,0,0,0,0,0,0,0,0,0,0,0,0,0,0,0,0,0,0,0,0,0,0,0,0,0,0,0,0,0,0,0,0,0,0,0,0,-0.0288,-0.0288,0,-0.0303,-0.0303,-0.0303,-0.029,-0.029,-0.0289,-0.0289,-0.0277,-0.0277,-0.0277,0,0,0,0,0,0,0,0,0,0,0,0,0,-0.03,-0.0299,-0.0288,-0.0288,-0.0289,-0.0303,-0.0303,-0.0303,-0.029,-0.029,-0.0289,-0.0288,-0.0277,-0.0277,-0.0277,0,0,0,0,0,0,0,0,0,0,0,0,0,-0.0302,-0.0299,-0.0288,-0.0284,-0.0284,-0.0303,-0.0303,-0.0303,-0.029,-0.029,-0.0289,-0.0288,-0.0277,-0.0277,-0.0277,-0.0295,0,0,-0.0278,-0.0278,0,0,0,0,0,0,0,0,-0.0302,-0.0302,-0.0284,-0.0284,-0.0284,-0.0294,-0.0303,-0.0299,-0.0291,-0.0288,-0.0289,-0.0288,-0.0281,-0.028,-0.0285,-0.0294,-0.0294,-0.0278,-0.0278,-0.0278,-0.0278,0,0,0,0,0,0,0,-0.0302,-0.0302,-0.0294,-0.0285,-0.0284,-0.0298,-0.0297,-0.0302,-0.0288,-0.0288,-0.0287,-0.0289,-0.028,-0.0285,-0.0285,-0.0294,-0.0278,-0.0278,-0.0278,-0.0278,-0.0308,-0.0309,0,0,0,0,0,0,-0.0298,-0.0301,-0.0294,-0.0295,-0.0291,-0.0299,-0.0298,-0.0292,-0.0289,-0.0288,-0.029,-0.0288,-0.0285,-0.0285,-0.0284,-0.0313,-0.0278,-0.0278,-0.0279,-0.0307,-0.0308,-0.0309,0,0,0,0,0,0,-0.0298,-0.0297,-0.0293,-0.0299,-0.0299,-0.0299,-0.0293,-0.0292,-0.0298,-0.029,-0.0288,-0.0295,-0.0285,-0.0284,-0.0297,-0.0311,-0.0279,-0.0279,-0.0307,-0.0308,-0.0309,-0.0364,0,0,0,0,0,0,-0.0298,-0.0297,-0.0297,-0.0298,-0.0299,-0.031,-0.0293,-0.0293,-0.03,-0.0298,-0.0295,-0.0293,-0.0284,-0.0296,-0.0297,-0.0311,-0.0279,-0.0306,-0.0307,-0.0308,-0.0361,-0.0367,-0.0371,0,0,0,0,0,-0.0299,-0.0303,-0.0297,-0.0296,-0.0296,-0.0311,-0.0313,-0.0311,-0.0301,-0.0311,-0.0309,-0.0293,-0.0303,-0.0298,-0.0298,-0.0313,-0.0305,-0.0307,-0.0308,-0.0359,-0.0366,-0.0371,0,0,0,0,0,0,-0.0311,-0.0302,-0.0295,-0.0297,-0.0305,-0.0309,-0.0319,-0.0316,-0.0323,-0.032,-0.0308,-0.0307,-0.0325,-0.031,-0.0304,-0.0323,-0.0299,-0.0301,-0.0338,-0.0344,-0.0349,-0.0324,-0.0279,0,0,0,0,0,-0.0313,-0.0311,-0.031,-0.0314,-0.0318,-0.0319,-0.0325,-0.0324,-0.0328,-0.033,-0.033,-0.0327,-0.0332,-0.033,-0.0335,-0.0348,-0.0276,-0.0354,-0.0359,-0.0363,-0.0343,-0.0255,-0.025,-0.0314,-0.0313,-0.0313,0,0,-0.0321,-0.0315,-0.0315,-0.0317,-0.0321,-0.0341,-0.0321,-0.0334,-0.0351,-0.0329,-0.0354,-0.0351,-0.0341,-0.0359,-0.0364,-0.0347,-0.0307,-0.0365,-0.0369,-0.0346,-0.0256,-0.0249,-0.0243,-0.0314,-0.0314,-0.0314,0,0,-0.0343,-0.0329,-0.034,-0.035,-0.0358,-0.036,-0.0365,-0.0374,-0.0376,-0.04,-0.0388,-0.0387,-0.0402,-0.0392,-0.0389,-0.0421,-0.0343,-0.0427,-0.0426,-0.0343,-0.0336,-0.0329,-0.0223,-0.0206,-0.0422,-0.0422,-0.0422,0,-0.0355,-0.0365,-0.035,-0.037,-0.0384,-0.0371,-0.0399,-0.0403,-0.0417,-0.0416,-0.0413,-0.0414,-0.0414,-0.0413,-0.0424,-0.0431,-0.0355,-0.0409,-0.0347,-0.0338,-0.033,-0.0223,-0.0203,-0.0425,-0.0425,-0.0424,-0.0424,0,-0.039,-0.0403,-0.0414,-0.043,-0.0443,-0.0465,-0.0468,-0.0479,-0.0478,-0.0472,-0.0474,-0.0464,-0.0453,-0.0462,-0.0454,-0.041,-0.0364,-0.0368,-0.0328,-0.0327,-0.0214,-0.0193,-0.0429,-0.0428,-0.0427,-0.0426,0,0,-0.0405,-0.0433,-0.0438,-0.0461,-0.0477,-0.0495,-0.0516,-0.0528,-0.053,-0.0526,-0.0516,-0.0523,-0.0491,-0.0482,-0.0468,-0.0397,-0.0286,-0.0355,-0.0349,-0.0241,-0.0065,-0.013,-0.0113,-0.0271,-0.0268,-0.0265,-0.0006,0,-0.0442,-0.0492,-0.0494,-0.0548,-0.0576,-0.0572,-0.0592,-0.0594,-0.0584,-0.0569,-0.0528,-0.0518,-0.0506,-0.0494,-0.0424,-0.0322,-0.0233,-0.0354,-0.0088,-0.0079,-0.0131,-0.0092,-0.0256,0.0011,0.0016,0.0019,0.0022,0,-0.0477,-0.0507,-0.0567,-0.0605,-0.0615,-0.0645,-0.0661,-0.0675,-0.0639,-0.0623,-0.0581,-0.0538,-0.0449,-0.044,-0.0225,-0.0295,-0.0178,-0.009,-0.0078,-0.01,-0.0106,0.0008,0.0061,0.0058,0.0055,0.0053,0.005,0,-0.0504,-0.0557,-0.0607,-0.0625,-0.0664,-0.0688,-0.0705,-0.0693,-0.0691,-0.0643,-0.0606,-0.0511,-0.0432,-0.0285,-0.0113,-0.0148,0.0149,0.0118,0.0179,0.0178,0.0186,0.0176,0.0289,0.0289,0.0288,0.0287,0.0286,0,-0.054,-0.0581,-0.0627,-0.0659,-0.0712,-0.0723,-0.0757,-0.0755,-0.0723,-0.0693,-0.0626,-0.0543,-0.0381,-0.0208,-0.0072,0.0131,0.0191,0.0207,0.024,0.0155,0.0139,0.0202,0.0189,0.0297,0.0295,0.0293,0.0291,0,-0.0564,-0.0594,-0.0657,-0.0711,-0.0731,-0.077,-0.0799,-0.0807,-0.0765,-0.0713,-0.0686,-0.052,-0.0289,-0.0121,0.0148,0.0191,0.0375,0.0431,0.0366,0.0388,0.0346,0.0327,0.0532,0.0532,0.0532,0.0532,0.0532,0,-0.0582,-0.0618,-0.0698,-0.0738,-0.0771,-0.0821,-0.0848,-0.0839,-0.0827,-0.0681,-0.0637,-0.0412,-0.0291,0.0084,0.0221,0.0472,0.047,0.0547,0.0404,0.036,0.0373,0.0353,0.0335,0.0532,0.0532,0.0532,0.0532,0,-0.0616,-0.0646,-0.0697,-0.0779,-0.083,-0.0874,-0.09,-0.0888,-0.0834,-0.0781,-0.0552,-0.0377,-0.0117,0.0111,0.0296,0.0461,0.0473,0.0545,0.0545,0.0412,0.0362,0.037,0.0352,0.0531,0.0531,0.0531,0.0531,0,-0.0635,-0.0677,-0.0744,-0.081,-0.0876,-0.0908,-0.0921,-0.0859,-0.0822,-0.0658,-0.056,-0.0286,-0.0117,0.0113,0.0295,0.0429,0.0427,0.0404,0.0411,0.0413,0.0248,0.0158,0.0323,0,0,0,0,0,-0.0644,-0.0694,-0.0767,-0.0841,-0.0904,-0.0934,-0.0943,-0.0934,-0.0862,-0.0702,-0.0633,-0.0385,-0.0094,0.0064,0.0195,0.0229,0.0399,0.037,0.0363,0.0529,0.0529,0.0342,0,0,0,0,0,0,-0.0652,-0.0726,-0.0767,-0.0848,-0.0896,-0.0953,-0.0958,-0.0911,-0.0809,-0.0699,-0.0506,-0.0407,-0.0094,-0.014,0.0196,0.0236,0.0227,0.0525,0.0525,0.0528,0.0529,0.0529,0.0337,0,0,0,0,0]}]]